Location: *
(44.1392°N, 4.8079°E)
Time: 07:59:19
(UTC+00:00)

YAOGAN 11 - Pass Details

Date: 21 June 2021
Orbit: 613 x 668 km, 98.3° (Epoch: 01 August)

Event Time Altitude Azimuth Distance (km) Brightness Sun altitude
Exits shadow 00:59:29 50° 203° (SSW) 826 4.2 -20.2°
Maximum altitude 01:00:27 65° 258° (WSW) 715 4.1 -20.1°
Drops below altitude 10° 01:04:56 10° 341° (NNW) 2,071 7.4 -19.8°
Sets 01:07:12 0° 344° (NNW) 2,995 8.4 -19.7°
